N8XE-13 Weather Reports


time (UTC)temp
C
wind
direction
speed
KPH
gust
KPH
rain 1hr
cm
rain 24hr
cm
rain mn
cm
humidity
%
barometer
mb
20260508170847 16 285 0.0 1.6 0.00 0.00 0.00 52
20260508170346 16 198 3.2 8.0 0.00 0.00 0.00 52
20260508165842 17 235 1.6 4.8 0.00 0.00 0.00 51
20260508165340 17 231 4.8 9.7 0.00 0.00 0.00 49
20260508164835 17 233 1.6 14.5 0.00 0.00 0.00 50
20260508164332 17 221 1.6 3.2 0.00 0.00 0.00 50
20260508163830 16 251 1.6 8.0 0.00 0.00 0.00 51
20260508163328 17 270 0.0 9.7 0.00 0.00 0.00 51
20260508162823 17 251 0.0 0.0 0.00 0.00 0.00 51
20260508162320 17 291 0.0 3.2 0.00 0.00 0.00 51
20260508161817 18 299 1.6 3.2 0.00 0.00 0.00 49
20260508161314 18 265 0.0 1.6 0.00 0.00 0.00 50
20260508160812 17 264 0.0 4.8 0.00 0.00 0.00 50
20260508160310 16 245 0.0 0.0 0.00 0.00 0.00 52
20260508155806 16 227 0.0 1.6 0.00 0.00 0.00 51
20260508155306 16 256 1.6 3.2 0.00 0.00 0.00 53
20260508154800 16 286 0.0 1.6 0.00 0.00 0.00 54
20260508154258 15 264 0.0 4.8 0.00 0.00 0.00 53
20260508153754 15 242 0.0 3.2 0.00 0.00 0.00 54
20260508153252 15 306 1.6 4.8 0.00 0.00 0.00 53
20260508152748 15 238 1.6 4.8 0.00 0.00 0.00 55
20260508152244 15 346 0.0 1.6 0.00 0.00 0.00 53
20260508151740 15 326 0.0 4.8 0.00 0.00 0.00 53
20260508151237 14 301 0.0 4.8 0.00 0.00 0.00 54
20260508150734 14 282 3.2 4.8 0.00 0.00 0.00 54
20260508150231 13 307 1.6 8.0 0.00 0.00 0.00 54
20260508145726 13 324 1.6 3.2 0.00 0.00 0.00 57
20260508145223 13 283 0.0 4.8 0.00 0.00 0.00 59
20260508144720 13 212 0.0 1.6 0.00 0.00 0.00 61
20260508144218 13 288 0.0 1.6 0.00 0.00 0.00 61
20260508143715 12 214 0.0 0.0 0.00 0.00 0.00 62
20260508143212 12 209 0.0 1.6 0.00 0.00 0.00 62
20260508142708 12 286 0.0 0.0 0.00 0.00 0.00 63
20260508142205 12 323 0.0 1.6 0.00 0.00 0.00 62
20260508141702 12 215 0.0 1.6 0.00 0.00 0.00 62
20260508141159 12 309 0.0 4.8 0.00 0.00 0.00 62
20260508140657 12 211 0.0 0.0 0.00 0.00 0.00 62
20260508140153 12 240 3.2 8.0 0.00 0.00 0.00 61
20260508135650 12 272 0.0 3.2 0.00 0.00 0.00 61
20260508135145 12 208 0.0 1.6 0.00 0.00 0.00 61
20260508134642 12 257 0.0 3.2 0.00 0.00 0.00 60
20260508134139 12 274 0.0 3.2 0.00 0.00 0.00 60
20260508133636 12 235 0.0 3.2 0.00 0.00 0.00 60
20260508133133 12 321 0.0 8.0 0.00 0.00 0.00 60
20260508132631 12 257 0.0 8.0 0.00 0.00 0.00 60
20260508132127 12 306 0.0 3.2 0.00 0.00 0.00 60
20260508131623 12 285 1.6 3.2 0.00 0.00 0.00 59
20260508131120 12 238 0.0 4.8 0.00 0.00 0.00 59
20260508130617 12 208 0.0 3.2 0.00 0.00 0.00 59
20260508130113 12 246 1.6 9.7 0.00 0.00 0.00 60
20260508125608 12 245 0.0 8.0 0.00 0.00 0.00 60
20260508125106 11 260 0.0 1.6 0.00 0.00 0.00 61
20260508124604 11 326 0.0 0.0 0.00 0.00 0.00 63
20260508124101 10 237 0.0 4.8 0.00 0.00 0.00 63
20260508123559 10 194 1.6 8.0 0.00 0.00 0.00 63
20260508123056 10 256 0.0 3.2 0.00 0.00 0.00 64
20260508122552 10 216 0.0 0.0 0.00 0.00 0.00 65
20260508122049 10 272 0.0 0.0 0.00 0.00 0.00 65
20260508121548 10 220 0.0 0.0 0.00 0.00 0.00 65
20260508121045 10 220 0.0 1.6 0.00 0.00 0.00 66
20260508120543 9 265 0.0 0.0 0.00 0.00 0.00 66
20260508120041 9 216 1.6 3.2 0.00 0.00 0.00 67
20260508115538 9 255 0.0 1.6 0.00 0.00 0.00 67
20260508115034 9 226 1.6 8.0 0.00 0.00 0.00 66
20260508114532 9 240 0.0 4.8 0.00 0.00 0.00 66
20260508114028 9 283 0.0 8.0 0.00 0.00 0.00 66
20260508113526 9 224 0.0 3.2 0.00 0.00 0.00 67
20260508113023 9 236 0.0 0.0 0.00 0.00 0.00 68
20260508112519 9 193 0.0 4.8 0.00 0.00 0.00 67
20260508112016 8 249 1.6 4.8 0.00 0.00 0.00 67
20260508111513 8 237 0.0 1.6 0.00 0.00 0.00 67
20260508111010 8 251 0.0 0.0 0.00 0.00 0.00 68
20260508110508 8 227 0.0 3.2 0.00 0.00 0.00 68
20260508110003 8 208 0.0 0.0 0.00 0.00 0.00 68
20260508105459 8 273 0.0 0.0 0.00 0.00 0.00 69
20260508104956 8 268 0.0 1.6 0.00 0.00 0.00 69
20260508104454 8 237 0.0 0.0 0.00 0.00 0.00 69
20260508103950 8 211 0.0 0.0 0.00 0.00 0.00 69
20260508103447 7 250 0.0 0.0 0.00 0.00 0.00 69
20260508102944 7 229 0.0 1.6 0.00 0.00 0.00 70
20260508102443 7 218 0.0 0.0 0.00 0.00 0.00 70
20260508101939 7 242 0.0 0.0 0.00 0.00 0.00 71
20260508101437 7 247 0.0 0.0 0.00 0.00 0.00 71
20260508100934 7 235 0.0 0.0 0.00 0.00 0.00 72
20260508100433 7 245 0.0 0.0 0.00 0.00 0.00 72
20260508095928 7 244 0.0 0.0 0.00 0.00 0.00 72
20260508095426 7 240 0.0 0.0 0.00 0.00 0.00 72
20260508094922 7 240 0.0 0.0 0.00 0.00 0.00 72
20260508094419 7 238 0.0 0.0 0.00 0.00 0.00 72
20260508093916 7 242 0.0 0.0 0.00 0.00 0.00 72
20260508093414 7 255 0.0 0.0 0.00 0.00 0.00 71
20260508092911 7 248 0.0 0.0 0.00 0.00 0.00 71
20260508092409 7 249 0.0 0.0 0.00 0.00 0.00 71
20260508091907 7 249 0.0 0.0 0.00 0.00 0.00 70
20260508091403 7 241 0.0 0.0 0.00 0.00 0.00 70
20260508090901 7 224 0.0 0.0 0.00 0.00 0.00 70
20260508090400 7 254 0.0 0.0 0.00 0.00 0.00 69
20260508085855 8 209 0.0 1.6 0.00 0.00 0.00 69
20260508085352 7 247 0.0 0.0 0.00 0.00 0.00 69
20260508084848 7 246 0.0 0.0 0.00 0.00 0.00 70
20260508084345 7 249 0.0 0.0 0.00 0.00 0.00 69
20260508083843 7 247 0.0 0.0 0.00 0.00 0.00 69
20260508083340 8 247 0.0 0.0 0.00 0.00 0.00 69
20260508082839 7 254 0.0 0.0 0.00 0.00 0.00 69
20260508082338 8 256 0.0 0.0 0.00 0.00 0.00 69
20260508081835 8 213 0.0 0.0 0.00 0.00 0.00 70
20260508081331 7 225 0.0 0.0 0.00 0.00 0.00 70
20260508080829 8 239 0.0 0.0 0.00 0.00 0.00 70
20260508080326 8 261 0.0 0.0 0.00 0.00 0.00 69
20260508075823 8 262 0.0 0.0 0.00 0.00 0.00 69
20260508075320 8 269 0.0 0.0 0.00 0.00 0.00 69
20260508074818 8 266 0.0 0.0 0.00 0.00 0.00 69
20260508074314 8 272 0.0 0.0 0.00 0.00 0.00 69
20260508073811 8 273 0.0 0.0 0.00 0.00 0.00 68
20260508073309 8 273 0.0 0.0 0.00 0.00 0.00 67
20260508072805 8 269 0.0 0.0 0.00 0.00 0.00 66
20260508072306 8 273 0.0 0.0 0.00 0.00 0.00 67
20260508071800 8 278 0.0 0.0 0.00 0.00 0.00 68
20260508071258 8 331 0.0 0.0 0.00 0.00 0.00 68
20260508070755 8 319 0.0 0.0 0.00 0.00 0.00 67
20260508070254 9 323 0.0 0.0 0.00 0.00 0.00 68
20260508065750 9 286 0.0 0.0 0.00 0.00 0.00 67
20260508065248 9 288 0.0 0.0 0.00 0.00 0.00 67
20260508064746 9 319 0.0 0.0 0.00 0.00 0.00 67
20260508064244 9 316 0.0 0.0 0.00 0.00 0.00 69
20260508063741 10 265 0.0 0.0 0.00 0.00 0.00 69
20260508063239 10 329 0.0 0.0 0.00 0.00 0.00 67
20260508062736 10 1 0.0 0.0 0.00 0.00 0.00 65
20260508062233 10 353 0.0 0.0 0.00 0.00 0.00 63
20260508061730 10 359 0.0 0.0 0.00 0.00 0.00 62
20260508061227 10 19 0.0 3.2 0.00 0.00 0.00 63
20260508060724 10 0 0.0 0.0 0.00 0.00 0.00 64
20260508060221 10 354 0.0 0.0 0.00 0.00 0.00 65
20260508055717 9 341 0.0 0.0 0.00 0.00 0.00 65
20260508055214 10 338 0.0 0.0 0.00 0.00 0.00 65
20260508054710 9 333 0.0 0.0 0.00 0.00 0.00 65
20260508054208 10 306 0.0 0.0 0.00 0.00 0.00 64
20260508053705 9 285 0.0 0.0 0.00 0.00 0.00 64
20260508053202 9 301 0.0 0.0 0.00 0.00 0.00 64
20260508052659 9 298 0.0 0.0 0.00 0.00 0.00 64
20260508052156 9 301 0.0 0.0 0.00 0.00 0.00 65
20260508051653 9 264 0.0 0.0 0.00 0.00 0.00 64
20260508051148 9 289 0.0 0.0 0.00 0.00 0.00 65
20260508050644 9 250 0.0 0.0 0.00 0.00 0.00 64
20260508050142 9 277 0.0 0.0 0.00 0.00 0.00 64
20260508045638 9 269 0.0 0.0 0.00 0.00 0.00 64
20260508045136 9 265 0.0 0.0 0.00 0.00 0.00 63
20260508044633 9 260 0.0 0.0 0.00 0.00 0.00 63
20260508044129 9 292 0.0 0.0 0.00 0.00 0.00 63
20260508043625 9 299 0.0 0.0 0.00 0.00 0.00 64
20260508043123 9 255 0.0 0.0 0.00 0.00 0.00 64
20260508042620 9 288 0.0 0.0 0.00 0.00 0.00 65
20260508042117 9 295 0.0 0.0 0.00 0.00 0.00 65
20260508041613 9 299 0.0 0.0 0.00 0.00 0.00 66
20260508041110 9 293 0.0 0.0 0.00 0.00 0.00 65
20260508040606 9 296 0.0 0.0 0.00 0.00 0.00 65
20260508040104 9 233 0.0 0.0 0.00 0.00 0.00 65
20260508035601 9 272 0.0 0.0 0.00 0.00 0.00 64
20260508035058 9 278 0.0 0.0 0.00 0.00 0.00 65
20260508034555 8 241 0.0 0.0 0.00 0.00 0.00 66
20260508034052 8 246 0.0 0.0 0.00 0.00 0.00 66
20260508033550 8 294 0.0 0.0 0.00 0.00 0.00 67
20260508033048 8 312 0.0 0.0 0.00 0.00 0.00 67
20260508032544 8 316 0.0 0.0 0.00 0.00 0.00 68
20260508032042 8 315 0.0 0.0 0.00 0.00 0.00 66
20260508031539 8 316 0.0 0.0 0.00 0.00 0.00 66
20260508031034 8 303 0.0 0.0 0.00 0.00 0.00 65
20260508030531 8 301 0.0 0.0 0.00 0.00 0.00 65
20260508030030 8 306 0.0 0.0 0.00 0.00 0.00 65
20260508025525 8 311 0.0 0.0 0.00 0.00 0.00 65
20260508025022 8 317 0.0 0.0 0.00 0.00 0.00 66
20260508024518 8 324 0.0 0.0 0.00 0.00 0.00 68
20260508024015 7 324 0.0 0.0 0.00 0.00 0.00 69
20260508023512 8 325 0.0 0.0 0.00 0.00 0.00 70
20260508023009 8 324 0.0 0.0 0.00 0.00 0.00 69
20260508022505 8 325 0.0 0.0 0.00 0.00 0.00 70
20260508022002 8 325 0.0 0.0 0.00 0.00 0.00 69
20260508021458 8 324 0.0 0.0 0.00 0.00 0.00 67
20260508020954 8 324 0.0 0.0 0.00 0.00 0.00 66
20260508020452 8 324 0.0 0.0 0.00 0.00 0.00 66
20260508015948 8 324 0.0 0.0 0.00 0.00 0.00 64
20260508015447 9 315 0.0 0.0 0.00 0.00 0.00 63
20260508014943 9 314 0.0 0.0 0.00 0.00 0.00 65
20260508014440 9 318 0.0 0.0 0.00 0.00 0.00 62
20260508013936 9 318 0.0 0.0 0.00 0.00 0.00 60
20260508013432 10 318 0.0 0.0 0.00 0.00 0.00 60
20260508012930 10 318 0.0 0.0 0.00 0.00 0.00 60
20260508012426 10 318 0.0 0.0 0.00 0.00 0.00 60
20260508011924 10 318 0.0 0.0 0.00 0.00 0.00 61
20260508011422 10 318 0.0 0.0 0.00 0.00 0.00 57
20260508010919 10 318 0.0 0.0 0.00 0.00 0.00 57
20260508010416 10 318 0.0 0.0 0.00 0.00 0.00 58
20260508005913 10 318 0.0 0.0 0.00 0.00 0.00 54
20260508005410 11 316 0.0 0.0 0.00 0.00 0.00 54
20260508004906 11 316 0.0 0.0 0.00 0.00 0.00 53
20260508004402 11 315 0.0 0.0 0.00 0.00 0.00 51
20260508003859 11 315 0.0 0.0 0.00 0.00 0.00 50
20260508003356 12 315 0.0 0.0 0.00 0.00 0.00 49
20260508002853 12 324 0.0 0.0 0.00 0.00 0.00 48
20260508002349 12 328 0.0 0.0 0.00 0.00 0.00 47
20260508001846 12 328 0.0 0.0 0.00 0.00 0.00 47
20260508001342 12 326 0.0 0.0 0.00 0.00 0.00 46
20260508000838 13 318 0.0 0.0 0.00 0.00 0.00 45
20260508000335 13 334 0.0 0.0 0.00 0.00 0.00 45
20260507235831 13 335 0.0 0.0 0.00 0.00 0.00 44
20260507235329 13 309 0.0 0.0 0.00 0.00 0.00 42
20260507234826 13 230 0.0 1.6 0.00 0.00 0.00 42
20260507234322 13 335 0.0 0.0 0.00 0.00 0.00 42
20260507233819 13 359 0.0 1.6 0.00 0.00 0.00 41
20260507233317 14 271 0.0 0.0 0.00 0.00 0.00 41
20260507232815 15 329 0.0 1.6 0.00 0.00 0.00 41
20260507232311 15 327 0.0 3.2 0.00 0.00 0.00 42
20260507231808 15 287 0.0 4.8 0.00 0.00 0.00 40
20260507231304 15 331 0.0 0.0 0.00 0.00 0.00 39
20260507230801 15 300 0.0 4.8 0.00 0.00 0.00 39
20260507230258 15 223 1.6 8.0 0.00 0.00 0.00 40
20260507225758 15 319 0.0 3.2 0.00 0.00 0.00 41
20260507225254 15 312 0.0 4.8 0.00 0.00 0.00 40
20260507224750 15 10 4.8 12.9 0.00 0.00 0.00 39
20260507224247 15 254 0.0 9.7 0.00 0.00 0.00 38
20260507223743 15 325 0.0 0.0 0.00 0.00 0.00 38
20260507223240 13 288 0.0 3.2 0.00 0.00 0.00 40
20260507222737 14 10 1.6 3.2 0.00 0.00 0.00 40
20260507222233 15 354 0.0 8.0 0.00 0.00 0.00 40
20260507221730 15 318 0.0 3.2 0.00 0.00 0.00 40
20260507221226 15 357 0.0 4.8 0.00 0.00 0.00 40
20260507220723 14 3 0.0 0.0 0.00 0.00 0.00 40
20260507220222 13 348 0.0 8.0 0.00 0.00 0.00 40
20260507215717 13 311 0.0 1.6 0.00 0.00 0.00 40
20260507215215 14 351 0.0 4.8 0.00 0.00 0.00 41
20260507214712 13 323 1.6 4.8 0.00 0.00 0.00 41
20260507214209 13 339 0.0 0.0 0.00 0.00 0.00 42
20260507213704 14 297 0.0 4.8 0.00 0.00 0.00 40
20260507213202 14 11 1.6 11.3 0.00 0.00 0.00 39
20260507212657 15 244 0.0 14.5 0.00 0.00 0.00 38
20260507212155 15 352 0.0 9.7 0.00 0.00 0.00 37
20260507211651 15 322 0.0 4.8 0.00 0.00 0.00 39
20260507211147 14 322 3.2 12.9 0.00 0.00 0.00 39
20260507210645 15 22 1.6 12.9 0.00 0.00 0.00 40
20260507210141 15 257 0.0 4.8 0.00 0.00 0.00 40
20260507205638 14 341 4.8 4.8 0.00 0.00 0.00 39
20260507205134 13 291 3.2 12.9 0.00 0.00 0.00 40
20260507204631 13 316 0.0 4.8 0.00 0.00 0.00 42
20260507204128 14 343 3.2 22.5 0.00 0.00 0.00 42
20260507203626 14 326 1.6 4.8 0.00 0.00 0.00 42
20260507203123 15 257 0.0 8.0 0.00 0.00 0.00 41
20260507202619 13 336 0.0 11.3 0.00 0.00 0.00 44
20260507202115 14 353 1.6 3.2 0.00 0.00 0.00 43
20260507201610 14 9 1.6 9.7 0.00 0.00 0.00 43
20260507201108 14 346 0.0 16.1 0.00 0.00 0.00 40
20260507200603 13 340 0.0 3.2 0.00 0.00 0.00 45
20260507200100 14 359 1.6 14.5 0.00 0.00 0.00 43
20260507195557 14 335 4.8 8.0 0.00 0.00 0.00 42
20260507195054 15 273 0.0 8.0 0.00 0.00 0.00 40
20260507194550 14 296 4.8 20.9 0.00 0.00 0.00 41
20260507194046 15 208 0.0 3.2 0.00 0.00 0.00 42
20260507193543 13 317 1.6 4.8 0.00 0.00 0.00 42
20260507193040 14 351 4.8 11.3 0.00 0.00 0.00 41
20260507192536 14 348 0.0 8.0 0.00 0.00 0.00 43
20260507192033 14 16 3.2 16.1 0.00 0.00 0.00 42
20260507191529 15 351 3.2 3.2 0.00 0.00 0.00 42
20260507191026 15 224 0.0 4.8 0.00 0.00 0.00 42
20260507190523 13 339 3.2 11.3 0.00 0.00 0.00 45
20260507190022 13 0 1.6 22.5 0.00 0.00 0.00 44
20260507185520 14 300 3.2 9.7 0.00 0.00 0.00 44
20260507185016 13 245 1.6 8.0 0.00 0.00 0.00 43
20260507184515 13 326 1.6 17.7 0.00 0.00 0.00 45
20260507184012 13 358 1.6 4.8 0.00 0.00 0.00 45
20260507183508 13 339 3.2 11.3 0.00 0.00 0.00 46
20260507183005 13 333 3.2 14.5 0.00 0.00 0.00 47
20260507182501 13 309 0.0 20.9 0.00 0.00 0.00 47
20260507181957 14 308 1.6 9.7 0.00 0.00 0.00 46
20260507181454 14 3 0.0 8.0 0.00 0.00 0.00 44
20260507180950 13 329 1.6 9.7 0.00 0.00 0.00 46
20260507180447 13 354 11.3 22.5 0.00 0.00 0.00 49
20260507175943 13 353 0.0 9.7 0.00 0.00 0.00 49
20260507175440 13 356 0.0 11.3 0.00 0.00 0.00 49
20260507174938 13 328 0.0 9.7 0.00 0.00 0.00 49
20260507174435 13 293 3.2 4.8 0.00 0.00 0.00 46
20260507173932 13 342 3.2 3.2 0.00 0.00 0.00 48
20260507173429 13 294 3.2 14.5 0.00 0.00 0.00 47
20260507172926 14 334 0.0 9.7 0.00 0.00 0.00 48
20260507172422 13 268 0.0 3.2 0.00 0.00 0.00 48
20260507171919 13 352 0.0 11.3 0.00 0.00 0.00 49
20260507171415 13 345 0.0 8.0 0.00 0.00 0.00 49